{"data":{"norad_id":59445,"epoch":"2026-09-20T09:27:58.040064Z","epoch_age_seconds":272580,"freshness":"STALE","line1":"1 59445U 24066D   26263.39442176  .00003898  00000+0  33200-3 0  9998","line2":"2 59445  45.6095 146.3687 0003537 217.2092 142.8545 14.99425501134113","mean_motion":14.99425501,"eccentricity":0.0003537,"inclination_deg":45.6095,"raan_deg":146.3687,"arg_perigee_deg":217.2092,"mean_anomaly_deg":142.8545,"bstar":0.000332,"rev_number":13411,"period_min":96.03678202349,"perigee_km":566.21312154042,"apogee_km":571.12729295882,"semimajor_km":6946.8072072496,"source":"CELESTRAK","updated_at":"2026-09-23T09:00:19.374648Z"}}